Simultaneous Nadir Overpasses (SNOs) Predictions

Prediction of SNOs between AQUA and NOAA-19 Satellite Orbit:

Table of predicted SNOs for the next 14.0 days since TLE Epoch: 5/31/2019
Index Date (AQUA) Time (AQUA) Lat,Lon (AQUA) SZA (AQUA ) Date (NOAA-19) Time (NOAA-19) Lat,Lon (NOAA-19) SZA (NOAA-19 ) Distance(km) Time Diff (sec)
1 05/31/2019 19:40:37 -80.41, 30.69 119.88 05/31/2019 19:40:17 -80.42, 30.76 119.86 2.02 20
2 05/31/2019 20:30:05 80.44,-161.97 60.18 05/31/2019 20:31:15 80.42,-161.99 60.14 2.01 70
3 06/03/2019 01:14:21 80.41, 127.28 59.84 06/03/2019 01:13:41 80.41, 127.18 59.86 1.86 40
4 06/03/2019 02:03:48 -80.44, -65.35 120.12 06/03/2019 02:04:44 -80.42, -65.43 120.15 2.63 56
5 06/05/2019 06:48:04 -80.40,-136.07 120.44 06/05/2019 06:47:10 -80.41,-136.10 120.40 1.04 54
6 06/05/2019 07:37:31 80.41, 31.50 59.58 06/05/2019 07:38:06 80.42, 31.45 59.58 1.94 35
7 06/07/2019 12:21:48 80.41, -39.59 59.37 06/07/2019 12:20:38 80.29, -41.44 59.49 36.80 70
8 06/07/2019 13:11:15 -80.43, 127.87 120.61 06/07/2019 13:11:36 -80.41, 127.99 120.64 2.58 21
9 06/09/2019 18:44:58 80.41,-135.40 59.18 06/09/2019 18:44:58 80.40,-135.53 59.18 2.66 0
10 06/12/2019 00:18:41 -80.39, -38.66 121.01 06/12/2019 00:18:28 -80.40, -38.74 120.99 1.97 13
11 06/12/2019 01:08:07 80.38, 129.10 58.97 06/12/2019 01:09:19 80.48, 130.06 58.93 20.97 72
12 06/14/2019 05:52:24 80.39, 57.97 58.87 06/14/2019 05:51:48 80.41, 58.10 58.89 3.53 36




NCC Satellite Simultaneous Nadir Overpasses (SNOs) Prediction Service
